Ovda Intl Airport, Israel

4:47 AM IDT on June 24, 2017 (GMT +0300)
Ovda Air Base

Weather History for LLOV - January, 2013

Change the Weather History Date:

Wednesday, January 2, 2013

  Actual Average Record
Temperature  
Mean Temperature 55 °F -  
Max Temperature 64 °F 59 °F 68 °F (2004)
Min Temperature 46 °F 41 °F 33 °F (2007)
Degree Days  
Heating Degree Days 10    
Growing Degree Days 5 (Base 50)    
Moisture  
Dew Point 45 °F    
Average Humidity 74    
Maximum Humidity 100    
Minimum Humidity 45    
Precipitation  
Precipitation 0.00 in - - ()
Sea Level Pressure  
Sea Level Pressure 30.20 in    
Wind  
Wind Speed 4 mph ()    
Max Wind Speed 8 mph    
Max Gust Speed -    
Visibility 5.1 miles    
Events      
Averages and records for this station are not official NWS values.
T = Trace of Precipitation, MM = Missing Value Source: Averaged Metar Reports

Daily Weather History Graph

Daily Weather History Graph

Search for Another Location

Airport or City:

Trip Planner

Search our weather history database for the weather conditions in past years. The results will help you decide how hot, cold, wet, or windy it might be!

Date:

Astronomy

Jan. 02, 2013 Rise Set
Actual Time 6:36 AM IST 4:52 PM IST
Civil Twilight 6:10 AM IST 5:18 PM IST
Nautical Twilight 5:40 AM IST 5:48 PM IST
Astronomical Twilight 5:11 AM IST 6:17 PM IST
Moon 9:39 PM IST (1/2) 9:29 AM IST (1/2)
Length of Visible Light 11h 08m
Length of Day
10h 16m
Waning Gibbous, 78% of the Moon is Illuminated
Jan 2
Waning Gibbous
Jan 5
Last Quarter
Jan 11
New
Jan 19
First Quarter
Jan 27
Full

Hourly Weather History & Observations

Time (IST) Temp. Windchill Dew Point Humidity Pressure Visibility Wind Dir Wind Speed Gust Speed Precip Events Conditions
12:50 AM 48.2 °F - 41.0 °F 76% 30.15 in - Variable 1.2 mph - N/A   Clear
1:50 AM 48.2 °F - 44.6 °F 87% 30.15 in - WSW 4.6 mph - N/A   Clear
2:50 AM 46.4 °F 45.2 °F 44.6 °F 93% 30.15 in - SW 3.5 mph - N/A   Clear
3:50 AM 46.4 °F 45.2 °F 46.4 °F 100% 30.15 in 5.0 mi West 3.5 mph - N/A   Scattered Clouds
4:50 AM 48.2 °F - 48.2 °F 100% 30.15 in 5.0 mi SW 4.6 mph - N/A   Partly Cloudy
5:50 AM 46.4 °F 44.3 °F 46.4 °F 100% 30.18 in 4.3 mi SW 4.6 mph - N/A   Partly Cloudy
6:50 AM 46.4 °F 44.3 °F 46.4 °F 100% 30.18 in 3.7 mi SW 4.6 mph - N/A   Unknown
7:50 AM 46.4 °F 45.2 °F 46.4 °F 100% 30.21 in 3.7 mi SSW 3.5 mph - N/A   Unknown
8:50 AM 53.6 °F - 51.8 °F 94% 30.21 in 3.7 mi Variable 1.2 mph - N/A   Partly Cloudy
9:50 AM 57.2 °F - 48.2 °F 72% 30.24 in 6.2 mi Variable 2.3 mph - N/A   Partly Cloudy
10:50 AM 59.0 °F - 48.2 °F 67% 30.21 in 6.2 mi NNE 8.1 mph - N/A   Partly Cloudy
11:50 AM 60.8 °F - 46.4 °F 59% 30.21 in 6.2 mi NNE 6.9 mph - N/A   Partly Cloudy
12:50 PM 62.6 °F - 44.6 °F 52% 30.18 in 6.2 mi NNE 6.9 mph - N/A   Partly Cloudy
1:50 PM 62.6 °F - 44.6 °F 52% 30.18 in 6.2 mi NE 6.9 mph - N/A   Partly Cloudy
2:50 PM 64.4 °F - 42.8 °F 45% 30.18 in - NNE 6.9 mph - N/A   Clear
3:50 PM 62.6 °F - 44.6 °F 52% 30.18 in - NE 8.1 mph - N/A   Clear
4:50 PM 60.8 °F - 42.8 °F 52% 30.21 in - NE 6.9 mph - N/A   Clear
5:50 PM 57.2 °F - 42.8 °F 59% 30.21 in - NNE 8.1 mph - N/A   Clear
6:50 PM 57.2 °F - 42.8 °F 59% 30.24 in - North 4.6 mph - N/A   Clear
7:50 PM 55.4 °F - 42.8 °F 63% 30.24 in - North 5.8 mph - N/A   Clear
8:50 PM 51.8 °F - 42.8 °F 71% 30.24 in - Calm Calm - N/A   Clear
9:50 PM 50.0 °F - 41.0 °F 71% 30.24 in - Variable 2.3 mph - N/A   Clear
10:50 PM 48.2 °F - 41.0 °F 76% 30.24 in - Calm Calm - N/A   Clear
11:50 PM 46.4 °F - 39.2 °F 76% 30.24 in - Variable 1.2 mph - N/A   Clear